TimeAKDT,TemperatureF,Dew PointF,Humidity,Sea Level PressureIn,VisibilityMPH,Wind Direction,Wind SpeedMPH,Gust SpeedMPH,PrecipitationIn,Events,Conditions,WindDirDegrees,DateUTC
12:53 AM,23.0,10.9,60,29.17,10.0,NNW,25.3,39.1,0.00,,Overcast,330,2013-04-09 08:53:00
1:53 AM,23.0,10.9,60,29.15,10.0,North,25.3,39.1,N/A,,Overcast,350,2013-04-09 09:53:00
2:53 AM,21.9,10.9,63,29.12,10.0,North,24.2,40.3,N/A,,Overcast,360,2013-04-09 10:53:00
3:53 AM,21.9,10.0,60,29.10,10.0,NNW,24.2,38.0,N/A,,Scattered Clouds,330,2013-04-09 11:53:00
4:53 AM,21.0,10.0,63,29.08,10.0,NNW,26.5,38.0,N/A,,Mostly Cloudy,340,2013-04-09 12:53:00
5:53 AM,21.0,9.0,60,29.06,10.0,NNW,23.0,38.0,N/A,,Overcast,330,2013-04-09 13:53:00
6:53 AM,19.9,8.1,60,29.04,10.0,NNW,23.0,34.5,N/A,,Overcast,340,2013-04-09 14:53:00
7:53 AM,19.9,7.0,57,29.03,10.0,NNW,21.9,41.4,N/A,,Partly Cloudy,330,2013-04-09 15:53:00
8:53 AM,21.0,6.1,53,29.03,10.0,NNW,19.6,33.4,N/A,,Clear,330,2013-04-09 16:53:00
9:53 AM,21.9,5.0,48,29.01,10.0,NNW,24.2,35.7,N/A,,Clear,340,2013-04-09 17:53:00
10:53 AM,23.0,6.1,48,29.00,10.0,NNW,20.7,38.0,N/A,,Clear,330,2013-04-09 18:53:00
11:53 AM,24.1,8.1,51,29.00,10.0,NW,23.0,32.2,N/A,,Clear,320,2013-04-09 19:53:00
12:53 PM,25.0,7.0,46,29.02,10.0,NW,17.3,32.2,N/A,,Clear,320,2013-04-09 20:53:00
1:53 PM,26.1,8.1,47,29.04,10.0,NW,19.6,27.6,N/A,,Clear,320,2013-04-09 21:53:00
2:53 PM,27.0,8.1,45,29.06,10.0,NW,21.9,28.8,N/A,,Partly Cloudy,310,2013-04-09 22:53:00
3:53 PM,28.0,8.1,43,29.08,10.0,NW,18.4,25.3,N/A,,Partly Cloudy,320,2013-04-09 23:53:00
4:53 PM,28.0,8.1,43,29.12,10.0,NW,18.4,27.6,N/A,,Mostly Cloudy,310,2013-04-10 00:53:00
5:53 PM,27.0,9.0,47,29.15,10.0,NW,13.8,21.9,N/A,,Overcast,320,2013-04-10 01:53:00
6:53 PM,26.1,9.0,49,29.19,10.0,NW,19.6,24.2,N/A,,Overcast,320,2013-04-10 02:53:00
7:53 PM,25.0,10.0,53,29.24,10.0,NW,9.2,19.6,N/A,,Overcast,320,2013-04-10 03:53:00
8:53 PM,23.0,10.0,58,29.29,10.0,NNW,11.5,19.6,N/A,,Overcast,330,2013-04-10 04:53:00
9:53 PM,23.0,6.1,48,29.33,10.0,NW,16.1,23.0,N/A,,Overcast,310,2013-04-10 05:53:00
10:53 PM,21.9,6.1,51,29.38,10.0,NW,11.5,23.0,N/A,,Overcast,320,2013-04-10 06:53:00
11:53 PM,21.0,6.1,53,29.42,10.0,NNW,16.1,27.6,N/A,,Overcast,340,2013-04-10 07:53:00